Regional Weather Roundup
Issued by NWS

Home | Current Version | Previous Version | Graphics & Text | Print | Product List | Glossary On
Versions: 1 2 3 4 5 6 7 8 9 10 11 12 13 14 15 16 17 18 19 20 21 22 23 24 25 26 27 28 29 30 31 32 33 34 35 36 37 38 39 40 41 42 43 44 45 46 47 48 49 50
000
ASUS43 KOAX 250102
RWRNE

WEATHER ROUNDUP FOR NEBRASKA
NATIONAL WEATHER SERVICE OMAHA NE
800 PM CDT THU APR 24 2014

NOTES: SATELLITE DATA IS BEING USED TO AUGMENT CLOUD COVER ABOVE
       12000 FEET.
       "FAIR" INDICATES FEW OR NO CLOUDS BELOW 12,000 FEET WITH NO
       SIGNIFICANT WEATHER AND/OR OBSTRUCTIONS TO VISIBILITY.

  * THESE STATIONS DO NOT REPORT WEATHER SUCH AS RAIN...SNOW OR FOG.

NEZ001>004-019>022-054>056-250200-
NEBRASKA PANHANDLE

CITY           SKY/WX    TMP DP  RH WIND       PRES   REMARKS
SCOTTSBLUFF    MOCLDY    60  23  24 NW3       29.81S
ALLIANCE       MOCLDY    57  27  31 W6        29.80F
CHADRON        PTCLDY    63  26  24 CALM      29.76F
KIMBALL        CLOUDY    60  19  20 NW5       29.85S
SIDNEY         PTCLDY    59  25  27 N6        29.85S
$$

NEZ057>060-069>072-079>082-250200-
SOUTHWEST NEBRASKA

CITY           SKY/WX    TMP DP  RH WIND       PRES   REMARKS
NORTH PLATTE   PTCLDY    59  25  27 W8        29.81S
IMPERIAL       CLEAR     66  16  14 N5        29.84R
LEXINGTON      CLEAR     64  22  20 W7        29.81R
MCCOOK         CLEAR     65  17  15 W7        29.84R
OGALLALA       PTCLDY    61  27  27 CALM      29.83S
$$

NEZ005>010-023>029-035>040-094-250200-
NORTH CENTRAL NEBRASKA

CITY           SKY/WX    TMP DP  RH WIND       PRES   REMARKS
VALENTINE      CLEAR     63  22  20 N9        29.78R
AINSWORTH      CLEAR     62  24  23 N8        29.78R
BROKEN BOW     CLEAR     64  16  15 W3        29.79R
O`NEILL        CLEAR     63  16  16 NW12      29.77R
ORD            CLEAR     63  22  20 NW8       29.77R
THEDFORD       CLEAR     65  15  14 W7        29.80S
$$

NEZ041-046>049-061>064-073>077-083>087-250200-
SOUTH CENTRAL NEBRASKA

CITY           SKY/WX    TMP DP  RH WIND       PRES   REMARKS
GRAND ISLAND   CLEAR     65  31  28 NW3       29.79R
AURORA         CLEAR     64  42  46 CALM      29.79R
HASTINGS       PTCLDY    65  33  30 CALM      29.80R
HEBRON         CLEAR     61  36  40 CALM      29.80R
HOLDREGE       PTCLDY    64  24  22 W5        29.82R
KEARNEY *      PTCLDY    64  30  27 W3        29.81R
YORK           CLEAR     63  39  42 N3        29.79R
$$

NEZ011>018-030>034-042>045-250200-
NORTHEAST NEBRASKA

CITY           SKY/WX    TMP DP  RH WIND       PRES   REMARKS
NORFOLK        CLEAR     62  31  31 N7        29.75R
ALBION         CLEAR     64  27  24 N5        29.77R
BLAIR          CLOUDY    61  39  44 CALM      29.75S
COLUMBUS *     CLEAR     55  36  47 NW7       29.77S
FREMONT        MOCLDY    64  37  37 CALM      29.76R
TEKAMAH        MOCLDY    62  45  53 E5        29.75R
$$

NEZ050>053-065>068-078-088>093-250200-
SOUTHEAST NEBRASKA

CITY           SKY/WX    TMP DP  RH WIND       PRES   REMARKS
LINCOLN        PTCLDY    62  39  42 SE5       29.77S
OMAHA EPPLEY   CLOUDY    63  41  44 CALM      29.76R
BEATRICE       CLEAR     64  37  36 CALM      29.78R
FALLS CITY     CLOUDY    59  49  69 SW5       29.79R
NEBRASKA CITY  CLOUDY    60  47  63 SE3       29.79R
PLATTSMOUTH    CLOUDY    61  41  47 CALM      29.77R
$$

NEZ044-045-051>053-067-250200-
OMAHA AREA

CITY           SKY/WX    TMP DP  RH WIND       PRES   REMARKS
OMAHA EPPLEY   CLOUDY    63  41  44 CALM      29.76R
BLAIR          CLOUDY    61  39  44 CALM      29.75S
FREMONT        MOCLDY    64  37  37 CALM      29.76R
OFFUTT AFB     CLOUDY    62  46  57 CALM      29.76R
PLATTSMOUTH    CLOUDY    61  41  47 CALM      29.77R
WAHOO          FAIR      64  38  39 CALM      29.76R
$$



USA.gov is the U.S. government's official web portal to all federal, state and local government web resources and services.